Log in  \/ 
x
x

Gillespie Operations

The Plus One Flyers, Inc SEE office is located at 1987 N.Marshall Ave, El Cajon 92020

Your Plus One key will open the lock box where the office key is located. PLEASE BE SURE TO PUT THE KEY BACK IN THE BOX.

We just did a major remodel of the facility and we now have a large meeting/ class room with a large screen TV for presentations. 

Go check it out!

 

Additional info
  • Operations Officer: Dave Eby
  • Phone Number: 619-279-7499
  • E-Mail: seeops@plusoneflyers.org
Comments
  • No comments found

Leave your comments

0 Character restriction
Your text should be more than 10 characters
terms and condition.
Special Instructions

Use your Plus One key to gain access to the real estate lock box.  This key will open the door.  Please remember to return the key to the lock box.

Gillespie Weather

[source: ADDS]
METAR
KSEE 180735Z AUTO 00000KT 10SM CLR 19/09 A2994 RMK AO2 =
KNKX 180655Z 00000KT 10SM CLR 21/09 A2995 RMK AO2 SLP134 T02060094 $ =
TAF
TAF KNKX 1803/1903 VRB05KT 9999 FEW150 SCT250 QNH2991INS BECMG 1818/1820 28008KT 9999 FEW150 QNH2986INS BECMG 1900/1902 VRB05KT 9999 FEW150 QNH2989INS T18/1811Z T29/1821Z =
SR / SS: 13:55 / 01:10 UTC ( 2017-10-18)

Gillespie Operations Map